When you browse on this site, cookies collect data to enhance your experience and personalize the content and advertising you see.
Visit our Privacy Policy to learn more. By continuing to use the site, you agree to this use of cookies and data.
  • In Switzerland
  • List of Countries
  • For 7 days
  • Water Temperature
  • Weather Map
  • Weather Widgets
  • user-avatar
    Login

    Hourly Weather Dover

    Today, 10 December, Tuesday

    Time Temperature Precipitation Wind Pressure Humidity
    00:00 +12°C° 0.3 mm 8 mps 757 mmHg 87%
    01:00 +13°C° 0.3 mm 8 mps 757 mmHg 85%
    02:00 +13°C° 0 mm 8 mps 756 mmHg 85%
    03:00 +14°C° 0 mm 7 mps 756 mmHg 84%
    04:00 +14°C° 0 mm 7 mps 756 mmHg 84%
    05:00 +14°C° 0 mm 7 mps 757 mmHg 84%
    06:00 +14°C° 0 mm 7 mps 757 mmHg 84%
    07:00 +14°C° 0 mm 7 mps 757 mmHg 84%
    08:00 +14°C° 0 mm 7 mps 757 mmHg 84%
    09:00 +14°C° 0 mm 7 mps 757 mmHg 85%
    10:00 +14°C° 0 mm 7 mps 758 mmHg 85%
    11:00 +14°C° 0.2 mm 6 mps 758 mmHg 86%
    12:00 +14°C° 0.2 mm 6 mps 758 mmHg 88%
    13:00 +14°C° 0.2 mm 6 mps 758 mmHg 90%
    14:00 +14°C° 0.4 mm 5 mps 758 mmHg 90%
    15:00 +13°C° 0.4 mm 4 mps 758 mmHg 91%
    16:00 +13°C° 0.4 mm 4 mps 759 mmHg 91%
    17:00 +12°C° 0.4 mm 5 mps 760 mmHg 89%
    18:00 +10°C° 0.4 mm 5 mps 761 mmHg 86%
    19:00 +9°C° 0.4 mm 6 mps 762 mmHg 83%
    20:00 +7°C° 0.1 mm 6 mps 763 mmHg 82%
    21:00 +4°C° 0.1 mm 7 mps 764 mmHg 80%
    22:00 +3°C° 0.1 mm 7 mps 765 mmHg 79%
    23:00 +2°C° 0.4 mm 7 mps 765 mmHg 81%

    Tomorrow, 11 December, Wednesday

    Time Temperature Precipitation Wind Pressure Humidity
    00:00 0°C° 0.4 mm 7 mps 765 mmHg 84%
    01:00 -1°C° 0.4 mm 7 mps 766 mmHg 87%
    02:00 -1°C° 1.2 mm 6 mps 766 mmHg 89%
    03:00 -2°C° 1.2 mm 6 mps 766 mmHg 91%
    04:00 -1°C° 1.2 mm 5 mps 767 mmHg 93%
    05:00 -1°C° 1.7 mm 4 mps 767 mmHg 94%
    06:00 -1°C° 1.7 mm 4 mps 767 mmHg 96%
    07:00 -1°C° 1.7 mm 3 mps 768 mmHg 97%
    08:00 -1°C° 0.6 mm 3 mps 768 mmHg 97%
    09:00 0°C° 0.6 mm 3 mps 769 mmHg 96%
    10:00 -1°C° 0.6 mm 4 mps 769 mmHg 96%
    11:00 -1°C° 0 mm 4 mps 769 mmHg 90%
    12:00 -1°C° 0 mm 4 mps 769 mmHg 85%
    13:00 0°C° 0 mm 4 mps 769 mmHg 80%
    14:00 0°C° 0 mm 4 mps 769 mmHg 79%
    15:00 -1°C° 0 mm 4 mps 769 mmHg 79%
    16:00 -1°C° 0 mm 4 mps 769 mmHg 78%
    17:00 -1°C° 0 mm 4 mps 770 mmHg 77%
    18:00 -2°C° 0 mm 4 mps 771 mmHg 76%
    19:00 -2°C° 0 mm 4 mps 772 mmHg 75%
    20:00 -2°C° 0 mm 5 mps 772 mmHg 74%
    21:00 -2°C° 0 mm 5 mps 773 mmHg 73%
    22:00 -4°C° 0 mm 5 mps 774 mmHg 73%
    23:00 -4°C° 0 mm 5 mps 774 mmHg 73%

    Day after tomorrow, 12 December, Thursday

    Time Temperature Precipitation Wind Pressure Humidity
    00:00 -4°C° 0 mm 5 mps 775 mmHg 74%
    01:00 -5°C° 0 mm 5 mps 775 mmHg 74%
    02:00 -5°C° 0 mm 5 mps 775 mmHg 74%
    03:00 -5°C° 0 mm 4 mps 776 mmHg 75%
    04:00 -5°C° 0 mm 4 mps 776 mmHg 75%
    05:00 -5°C° 0 mm 4 mps 777 mmHg 75%
    06:00 -6°C° 0 mm 3 mps 778 mmHg 76%
    07:00 -6°C° 0 mm 3 mps 779 mmHg 76%
    08:00 -5°C° 0 mm 3 mps 779 mmHg 72%
    09:00 -4°C° 0 mm 3 mps 780 mmHg 68%
    10:00 -2°C° 0 mm 3 mps 780 mmHg 64%
    11:00 -1°C° 0 mm 2 mps 780 mmHg 61%
    12:00 -1°C° 0 mm 2 mps 779 mmHg 57%
    13:00 +1°C° 0 mm 2 mps 779 mmHg 54%
    14:00 +1°C° 0 mm 2 mps 779 mmHg 56%
    15:00 +1°C° 0 mm 2 mps 778 mmHg 59%
    16:00 -1°C° 0 mm 2 mps 778 mmHg 61%
    17:00 -1°C° 0 mm 2 mps 778 mmHg 64%
    18:00 +1°C° 0 mm 1 mps 778 mmHg 66%
    19:00 0°C° 0 mm 1 mps 778 mmHg 69%
    20:00 0°C° 0 mm 1 mps 778 mmHg 71%
    21:00 -2°C° 0 mm 2 mps 778 mmHg 74%
    22:00 -1°C° 0 mm 2 mps 777 mmHg 76%
    23:00 -1°C° 0 mm 2 mps 777 mmHg 79%

    13 December, Friday

    Time Temperature Precipitation Wind Pressure Humidity
    00:00 -1°C° 0 mm 2 mps 776 mmHg 81%
    01:00 -1°C° 0 mm 2 mps 776 mmHg 83%
    02:00 +1°C° 0 mm 2 mps 775 mmHg 84%
    03:00 +3°C° 0 mm 1 mps 774 mmHg 84%
    04:00 +4°C° 0 mm 1 mps 774 mmHg 84%
    05:00 +4°C° 0 mm 1 mps 773 mmHg 86%
    06:00 +4°C° 0 mm 2 mps 773 mmHg 87%
    07:00 +4°C° 0 mm 2 mps 772 mmHg 89%
    08:00 +5°C° 0 mm 2 mps 772 mmHg 89%
    09:00 +6°C° 0 mm 2 mps 771 mmHg 89%
    10:00 +7°C° 0 mm 2 mps 771 mmHg 89%
    11:00 +8°C° 0 mm 3 mps 770 mmHg 89%
    12:00 +9°C° 0 mm 3 mps 769 mmHg 89%
    13:00 +9°C° 0 mm 3 mps 768 mmHg 89%
    14:00 +9°C° 0.1 mm 3 mps 768 mmHg 91%
    15:00 +9°C° 0.1 mm 3 mps 767 mmHg 93%
    16:00 +8°C° 0.1 mm 2 mps 766 mmHg 95%
    17:00 +8°C° 0.1 mm 3 mps 765 mmHg 94%
    18:00 +8°C° 0.1 mm 3 mps 765 mmHg 94%
    19:00 +9°C° 0.1 mm 3 mps 764 mmHg 94%
    20:00 +9°C° 0 mm 3 mps 763 mmHg 94%
    21:00 +9°C° 0 mm 3 mps 762 mmHg 94%
    22:00 +9°C° 0 mm 3 mps 762 mmHg 94%
    23:00 +8°C° 2.1 mm 4 mps 760 mmHg 95%

    14 December, Saturday

    Time Temperature Precipitation Wind Pressure Humidity
    00:00 +10°C° 2.1 mm 4 mps 759 mmHg 97%
    01:00 +9°C° 2.1 mm 5 mps 757 mmHg 98%
    02:00 +9°C° 4.9 mm 5 mps 756 mmHg 98%
    03:00 +10°C° 4.9 mm 4 mps 754 mmHg 98%
    04:00 +11°C° 4.9 mm 4 mps 752 mmHg 98%
    05:00 +11°C° 1.5 mm 4 mps 751 mmHg 98%
    06:00 +11°C° 1.5 mm 3 mps 750 mmHg 98%
    07:00 +11°C° 1.5 mm 3 mps 749 mmHg 98%
    08:00 +11°C° 0 mm 3 mps 749 mmHg 98%
    09:00 +11°C° 0 mm 4 mps 749 mmHg 97%
    10:00 +11°C° 0 mm 4 mps 749 mmHg 97%
    11:00 +10°C° 0 mm 5 mps 748 mmHg 94%
    12:00 +10°C° 0 mm 6 mps 748 mmHg 91%
    13:00 +11°C° 0 mm 7 mps 748 mmHg 89%
    14:00 +10°C° 0 mm 6 mps 748 mmHg 89%
    15:00 +10°C° 0 mm 5 mps 748 mmHg 88%
    16:00 +10°C° 0 mm 5 mps 747 mmHg 88%
    17:00 +10°C° 0 mm 5 mps 748 mmHg 89%
    18:00 +10°C° 0 mm 5 mps 748 mmHg 91%
    19:00 +9°C° 0 mm 5 mps 748 mmHg 92%
    20:00 +9°C° 0.7 mm 6 mps 748 mmHg 88%
    21:00 +9°C° 0.7 mm 6 mps 749 mmHg 85%
    22:00 +8°C° 0.7 mm 6 mps 749 mmHg 81%
    23:00 +8°C° 0 mm 6 mps 749 mmHg 79%

    15 December, Sunday

    Time Temperature Precipitation Wind Pressure Humidity
    00:00 +6°C° 0 mm 7 mps 750 mmHg 76%
    01:00 +5°C° 0 mm 7 mps 750 mmHg 74%
    02:00 +4°C° 0 mm 7 mps 751 mmHg 74%
    03:00 +4°C° 0 mm 8 mps 752 mmHg 74%
    04:00 +4°C° 0 mm 8 mps 752 mmHg 74%
    05:00 +4°C° 0 mm 7 mps 753 mmHg 75%
    06:00 +3°C° 0 mm 7 mps 754 mmHg 77%
    07:00 +3°C° 0 mm 6 mps 755 mmHg 78%
    08:00 +4°C° 0 mm 6 mps 756 mmHg 76%
    09:00 +5°C° 0 mm 7 mps 757 mmHg 73%
    10:00 +6°C° 0 mm 7 mps 758 mmHg 70%
    11:00 +6°C° 0 mm 7 mps 758 mmHg 69%
    12:00 +6°C° 0 mm 7 mps 759 mmHg 67%
    13:00 +8°C° 0 mm 6 mps 759 mmHg 66%
    14:00 +7°C° 0 mm 6 mps 759 mmHg 67%
    15:00 +7°C° 0 mm 5 mps 760 mmHg 68%
    16:00 +7°C° 0 mm 5 mps 760 mmHg 69%
    17:00 +6°C° 0 mm 4 mps 761 mmHg 74%
    18:00 +5°C° 0 mm 4 mps 761 mmHg 79%
    19:00 +5°C° 0 mm 4 mps 762 mmHg 84%
    20:00 +5°C° 0 mm 3 mps 762 mmHg 84%
    21:00 +5°C° 0 mm 3 mps 763 mmHg 85%
    22:00 +5°C° 0 mm 3 mps 763 mmHg 85%
    23:00 +5°C° 0 mm 3 mps 763 mmHg 84%
    Show more